FENGYUN 1C DEB

Satellite information

Favourite Embed

Satellite Type and Status

DEBRISIN ORBIT

Key statistics

Satellite FENGYUN 1C DEB at a glance.

Uptime

9662

Days in orbit

Revolutions

≈ 14.2

Per day

Orbit

SSO

Sun Synchronous Orbit

Inclination

98.5

Latest

Satellite identification and parameters

Extended collection of information and parameters for FENGYUN 1C DEB.

Object identification

Identified? True

Debris? True

Object name: FENGYUN 1C DEB

International designator: 1999-025EEE

Object number (NORAD): 37046

Object ID (CCSDS): 37046

Country: PEOPLES REPUBLIC OF CHINA (PRC)

Current information (Y/N): Y

RCS size: SMALL

Orbital parameters

Period: 101.083 minutes

Inclination: 98.5464 deg

SMA: 7188.085 km

Apoapsis: 846.77 km

Periapsis: 773.13 km

RAAN: 309.9193 deg

Eccentricy: 0.00512239

Argument of periapsis: 99.3224 deg

Mean anomaly: 261.3753 deg

Mean motion: 14.24567306 rev/day

Mean motion (dot): 0.00002739 rev/day2

B* drag term: 0.0011818689 1/REarth

Two-line elements (TLE)

Creation date: Oct. 21, 2025, 6:24 p.m.

Reference frame: TEME

Reference center: EARTH

Epoch: Oct. 21, 2025, 6:21 a.m. UTC

TLE line 0: 0 FENGYUN 1C DEB

TLE line 1: 1 37046U 99025EEE 25294.26513702 .00002739 00000-0 11819-2 0 9996

TLE line 2: 2 37046 98.5464 309.9193 0051224 99.3224 261.3753 14.24567306634340

Live tracking on map

Real-time ground track for satellite FENGYUN 1C DEB.

In-orbit conjunctions

A list of the most updated potential collisions computed for object FENGYUN 1C DEB.

Target Orbit TCA Probability of collision Miss distance Type
CZ-6A DEB LEO 2025-04-08 11:41:20 0.000223719 18.0 (m) DEBRIS
NOAA 6 SSO 2024-06-20 13:09:36 0.0001983877 906.0 (m) PAYLOAD

Associated space launch

Chinese polar orbiting meteorological satellite

FENGYUN 1C DEB was lifted into orbit during the mission ‘Long March 4B | Feng Yun 1C’, on board a Long March 4B space rocket.

The launch took place on May 10, 1999, 1:33 a.m. from Launch Complex 7.

For more information about the launch, click the button.

Launch to space Long March 4B | Feng Yun 1C
Long March 4B | Feng Yun 1C

Agency: N/A

Status: Launch Successful

Launch date: May 10, 1999, 1:33 a.m. UTC

Rocket: Long March 4B

Launch pad: Launch Complex 7

Location: Taiyuan Satellite Launch Center, People's Republic of China

...

Latest news about this satellite

There are no fresh news available about this satellite. Check back as we update our databases every day.


Newsletter sign-up

Weekly statistics, charts and insights to help you stay on top of the space industry.